Kelso, MO

2:42 AM CST on January 19, 2017 (GMT -0600)
Cape Girardeau Regional

Weather History for KCGI - April, 2012

Change the Weather History Date:

Tuesday, April 17, 2012

  Actual Average Record
Temperature  
Mean Temperature 55 °F 58 °F  
Max Temperature 67 °F 69 °F 86 °F (1971)
Min Temperature 43 °F 46 °F 33 °F (1993)
Degree Days  
Heating Degree Days 10 8  
Month to date heating degree days 126 182  
Since 1 July heating degree days 3248 4238  
Cooling Degree Days 0 1  
Month to date cooling degree days 35 11  
Year to date cooling degree days 82 15  
Growing Degree Days 5 (Base 50)    
Moisture  
Dew Point 47 °F    
Average Humidity 73    
Maximum Humidity 100    
Minimum Humidity 45    
Precipitation  
Precipitation 0.00 in 0.14 in 0.88 in (1968)
Month to date precipitation 0.92 2.31  
Year to date precipitation 8.91 13.59  
Sea Level Pressure  
Sea Level Pressure 30.29 in    
Wind  
Wind Speed 3 mph (NE)    
Max Wind Speed 14 mph    
Max Gust Speed 18 mph    
Visibility 5 miles    
Events Fog    
T = Trace of Precipitation, MM = Missing Value Source: NWS Daily Summary

Daily Weather History Graph

Daily Weather History Graph

Search for Another Location

Airport or City:

Trip Planner

Search our weather history database for the weather conditions in past years. The results will help you decide how hot, cold, wet, or windy it might be!

Date:

Astronomy

Apr. 17, 2012 Rise Set
Actual Time 6:20 AM CDT 7:35 PM CDT
Civil Twilight 5:53 AM CDT 8:02 PM CDT
Nautical Twilight 5:21 AM CDT 8:35 PM CDT
Astronomical Twilight 4:47 AM CDT 9:08 PM CDT
Moon 4:13 AM CDT (4/17) 4:32 PM CDT (4/17)
Length of Visible Light 14h 09m
Length of Day
13h 15m
Waning Crescent, 12% of the Moon is Illuminated
Apr 17
Waning Crescent
Apr 21
New
Apr 29
First Quarter
May 5
Full
May 12
Last Quarter

Hourly Weather History & Observations

Time (CDT) Temp. Windchill Dew Point Humidity Pressure Visibility Wind Dir Wind Speed Gust Speed Precip Events Conditions
12:53 AM 50.0 °F - 48.9 °F 96% 30.26 in 10.0 mi Calm Calm - N/A   Clear
1:16 AM 50.0 °F - 48.2 °F 94% 30.25 in 1.2 mi Calm Calm - N/A   Clear
1:25 AM 48.2 °F - 46.4 °F 93% 30.25 in 0.8 mi Calm Calm - N/A   Clear
1:33 AM 48.2 °F - 48.2 °F 100% 30.25 in 1.5 mi Calm Calm - N/A   Clear
1:43 AM 48.2 °F - 48.2 °F 100% 30.25 in 3.0 mi Calm Calm - N/A   Clear
1:53 AM 48.9 °F - 48.0 °F 97% 30.25 in 10.0 mi North 3.5 mph - N/A   Clear
2:32 AM 48.2 °F - 46.4 °F 93% 30.25 in 2.0 mi Calm Calm - N/A   Clear
2:42 AM 46.4 °F - 46.4 °F 100% 30.25 in 1.0 mi Calm Calm - N/A   Clear
2:53 AM 46.9 °F - 46.9 °F 100% 30.25 in 1.2 mi Calm Calm - N/A   Clear
3:17 AM 46.4 °F - 44.6 °F 93% 30.26 in 0.5 mi Calm Calm - N/A Fog Fog
3:53 AM 46.0 °F - 45.0 °F 96% 30.26 in 0.5 mi Calm Calm - N/A Fog Fog
4:53 AM 46.0 °F - 45.0 °F 96% 30.27 in 0.5 mi Calm Calm - 0.01 in Fog Fog
5:28 AM 46.4 °F - 44.6 °F 93% 30.27 in 3.0 mi Calm Calm - N/A   Clear
5:32 AM 46.4 °F - 44.6 °F 93% 30.28 in 1.8 mi Calm Calm - N/A   Partly Cloudy
5:35 AM 46.4 °F - 44.6 °F 93% 30.28 in 0.8 mi Calm Calm - N/A   Mist
5:50 AM 46.4 °F - 44.6 °F 93% 30.28 in 1.2 mi Calm Calm - N/A   Partly Cloudy
5:53 AM 46.0 °F - 45.0 °F 96% 30.29 in 2.0 mi Calm Calm - N/A   Partly Cloudy
6:00 AM 44.6 °F - 44.6 °F 100% 30.28 in 1.2 mi Calm Calm - N/A   Partly Cloudy
6:12 AM 44.6 °F 43.1 °F 44.6 °F 100% 30.28 in 2.0 mi North 3.5 mph - N/A   Partly Cloudy
6:27 AM 46.4 °F - 44.6 °F 93% 30.29 in 3.0 mi Calm Calm - N/A   Scattered Clouds
6:32 AM 44.6 °F - 44.6 °F 100% 30.29 in 1.8 mi Calm Calm - N/A   Scattered Clouds
6:35 AM 44.6 °F - 44.6 °F 100% 30.29 in 0.8 mi Calm Calm - N/A   Mist
6:45 AM 44.6 °F - 44.6 °F 100% 30.30 in 0.2 mi Calm Calm - N/A Fog Fog
6:53 AM 45.0 °F - 44.1 °F 97% 30.30 in 0.2 mi Calm Calm - N/A Fog Fog
7:10 AM 44.6 °F - 44.6 °F 100% 30.30 in 0.5 mi Calm Calm - N/A Fog Fog
7:18 AM 46.4 °F - 44.6 °F 93% 30.31 in 0.2 mi Calm Calm - N/A Fog Fog
7:40 AM 48.2 °F - 48.2 °F 100% 30.31 in 0.2 mi Calm Calm - N/A Fog Fog
7:53 AM 48.9 °F - 48.9 °F 100% 30.31 in 0.5 mi Calm Calm - N/A Fog Fog
8:02 AM 50.0 °F - 48.2 °F 94% 30.31 in 2.5 mi Calm Calm - N/A   Mostly Cloudy
8:15 AM 51.8 °F - 51.8 °F 100% 30.32 in 1.5 mi Calm Calm - N/A   Mostly Cloudy
8:19 AM 51.8 °F - 51.8 °F 100% 30.31 in 2.5 mi Calm Calm - N/A   Scattered Clouds
8:28 AM 53.6 °F - 51.8 °F 94% 30.32 in 5.0 mi Calm Calm - N/A   Scattered Clouds
8:53 AM 54.0 °F - 53.1 °F 97% 30.32 in 10.0 mi Calm Calm - N/A   Clear
9:53 AM 61.0 °F - 52.0 °F 72% 30.35 in 10.0 mi East 3.5 mph - N/A   Clear
10:53 AM 63.0 °F - 53.1 °F 70% 30.33 in 10.0 mi NE 6.9 mph - N/A   Clear
11:53 AM 64.0 °F - 50.0 °F 60% 30.34 in 10.0 mi ENE 4.6 mph - N/A   Clear
12:53 PM 64.9 °F - 46.9 °F 52% 30.32 in 10.0 mi ENE 6.9 mph - N/A   Clear
1:53 PM 64.9 °F - 46.0 °F 50% 30.32 in 10.0 mi ENE 8.1 mph - N/A   Clear
2:53 PM 64.9 °F - 46.0 °F 50% 30.30 in 10.0 mi ENE 10.4 mph - N/A   Clear
3:53 PM 66.0 °F - 46.0 °F 48% 30.29 in 10.0 mi NE 10.4 mph - N/A   Clear
4:53 PM 66.0 °F - 45.0 °F 47% 30.27 in 10.0 mi ENE 9.2 mph - N/A   Clear
5:53 PM 64.9 °F - 45.0 °F 48% 30.26 in 10.0 mi NE 8.1 mph - N/A   Clear
6:53 PM 63.0 °F - 46.0 °F 54% 30.27 in 10.0 mi NE 5.8 mph - N/A   Clear
7:53 PM 59.0 °F - 46.9 °F 64% 30.27 in 10.0 mi Calm Calm - N/A   Clear
8:53 PM 53.1 °F - 48.9 °F 86% 30.27 in 10.0 mi Calm Calm - N/A   Clear
9:53 PM 50.0 °F - 46.9 °F 89% 30.27 in 10.0 mi Calm Calm - N/A   Clear
10:53 PM 48.9 °F - 46.0 °F 90% 30.27 in 10.0 mi Calm Calm - N/A   Clear
11:53 PM 46.9 °F - 46.0 °F 97% 30.27 in 10.0 mi Calm Calm - N/A   Clear